�N����,����,�~����,�C��,���x,�C��,����,���ϕ���,�ő�u�ԕ���,�ő厞����,���˗�,�I�_���x,�n�����x,�ő啗���N��,DTYPE
"18/02/13","00:10",0.0,-3.4,91.9,1007.8,290.0,1.8,3.4,319.9,0.00,-4.5,2.6,"00:08:58",1
"18/02/13","00:20",0.0,-3.4,91.2,1007.4,298.0,1.8,2.8,314.2,0.00,-4.6,2.6,"00:18:12",1
"18/02/13","00:30",0.0,-3.7,91.3,1007.4,305.9,2.6,3.5,317.4,0.00,-4.9,2.7,"00:21:36",1
"18/02/13","00:40",0.0,-3.5,91.9,1007.8,295.1,1.8,3.3,316.7,0.00,-4.6,2.6,"00:37:06",1
"18/02/13","00:50",0.0,-3.8,90.7,1007.1,293.8,2.0,2.6,307.7,0.00,-5.1,2.6,"00:43:28",1
"18/02/13","01:00",0.0,-3.9,91.8,1007.4,313.1,3.1,3.9,312.6,0.00,-5.0,2.4,"00:58:42",1
"18/02/13","01:10",0.0,-4.1,91.8,1007.1,306.2,2.6,3.5,315.1,0.00,-5.2,2.5,"01:01:36",1
"18/02/13","01:20",0.0,-3.9,92.9,1007.1,303.1,2.5,3.2,323.0,0.00,-4.8,2.4,"01:16:44",1
"18/02/13","01:30",0.0,-4.0,92.4,1006.9,294.7,2.0,3.3,318.5,0.00,-5.0,2.4,"01:20:08",1
"18/02/13","01:40",0.0,-4.1,92.4,1006.9,292.3,1.8,2.9,307.6,0.00,-5.1,2.4,"01:32:34",1
"18/02/13","01:50",0.0,-4.2,92.4,1007.1,299.7,2.1,2.8,313.4,0.00,-5.2,2.3,"01:44:48",1
"18/02/13","02:00",0.0,-4.3,92.8,1006.9,303.0,2.0,2.9,316.0,0.00,-5.2,2.5,"01:52:28",1
"18/02/13","02:10",0.0,-3.7,92.4,1006.9,313.1,2.6,4.1,314.3,0.00,-4.7,2.3,"02:01:12",1
"18/02/13","02:20",0.0,-3.3,92.2,1007.4,303.6,2.3,3.3,310.7,0.00,-4.3,2.4,"02:11:28",1
"18/02/13","02:30",0.0,-1.9,88.6,1007.4,298.3,2.3,3.6,291.2,0.00,-3.5,2.4,"02:21:56",1
"18/02/13","02:40",0.0,-1.1,82.1,1007.8,283.4,2.1,3.7,288.8,0.00,-3.7,2.3,"02:33:12",1
"18/02/13","02:50",0.0,-1.0,78.3,1007.8,297.5,1.7,3.5,317.9,0.00,-4.3,2.2,"02:40:16",1
"18/02/13","03:00",0.0,-0.6,77.5,1008.1,289.3,2.3,5.5,321.7,0.00,-4.0,2.1,"02:56:42",1
"18/02/13","03:10",0.0,-0.4,76.9,1008.3,285.8,2.3,4.5,315.7,0.00,-3.9,2.2,"03:09:52",1
"18/02/13","03:20",0.0,-0.4,76.8,1008.8,294.7,2.3,4.9,249.4,0.00,-3.9,2.1,"03:15:54",1
"18/02/13","03:30",0.0,-0.5,76.9,1009.0,296.0,2.6,4.3,307.4,0.00,-4.0,2.3,"03:20:24",1
"18/02/13","03:40",0.0,-0.6,76.8,1008.8,299.5,2.5,4.0,319.8,0.00,-4.1,2.3,"03:38:40",1
"18/02/13","03:50",0.0,-0.6,77.5,1009.0,297.7,2.2,4.1,330.6,0.00,-4.0,2.2,"03:48:06",1
"18/02/13","04:00",0.0,-0.7,78.1,1008.6,303.2,2.1,5.2,336.3,0.00,-4.0,2.1,"03:57:24",1
"18/02/13","04:10",0.0,-0.5,78.3,1008.8,297.7,2.3,4.1,352.0,0.00,-3.8,2.2,"04:06:16",1
"18/02/13","04:20",0.0,-0.6,78.3,1008.6,297.5,2.5,3.9,336.3,0.00,-3.9,2.1,"04:13:22",1
"18/02/13","04:30",0.0,-0.4,79.1,1008.6,296.8,2.7,4.1,297.0,0.00,-3.5,2.2,"04:27:34",1
"18/02/13","04:40",0.0,-0.3,78.5,1008.8,303.9,2.7,4.3,319.8,0.00,-3.5,2.3,"04:37:42",1
"18/02/13","04:50",0.0,-0.4,78.8,1008.8,292.2,2.3,4.8,305.7,0.00,-3.6,2.1,"04:46:34",1
"18/02/13","05:00",0.0,-0.3,78.6,1009.0,293.0,2.5,3.9,335.1,0.00,-3.5,2.0,"04:55:08",1
"18/02/13","05:10",0.0,-0.4,78.1,1009.0,289.1,2.3,3.9,324.9,0.00,-3.7,2.1,"05:04:36",1
"18/02/13","05:20",0.0,-0.6,78.3,1009.0,283.9,1.7,3.5,281.1,0.00,-3.9,2.2,"05:13:24",1
"18/02/13","05:30",0.0,-0.6,79.2,1009.0,285.4,1.3,3.4,306.6,0.00,-3.7,2.1,"05:24:22",1
"18/02/13","05:40",0.0,-0.8,78.8,1009.5,300.6,1.3,2.5,321.3,0.00,-4.0,2.0,"05:31:52",1
"18/02/13","05:50",0.0,-0.9,79.8,1009.5,276.7,1.2,2.9,302.6,0.00,-3.9,2.0,"05:40:32",1
"18/02/13","06:00",0.0,-0.7,80.7,1010.0,291.4,1.5,2.9,350.5,0.00,-3.6,2.1,"05:59:44",1
"18/02/13","06:10",0.0,-0.7,80.4,1009.5,294.0,1.7,3.4,321.2,0.00,-3.6,1.9,"06:07:24",1
"18/02/13","06:20",0.0,-0.7,80.4,1009.3,278.8,1.8,3.2,319.5,0.00,-3.6,2.1,"06:19:04",1
"18/02/13","06:30",0.0,-0.9,80.4,1009.5,307.1,1.8,3.5,297.7,0.00,-3.8,2.0,"06:27:16",1
"18/02/13","06:40",0.0,-1.1,81.2,1009.7,302.3,1.5,2.2,318.7,0.00,-3.9,2.1,"06:30:56",1
"18/02/13","06:50",0.0,-1.0,82.0,1009.7,296.7,1.7,4.0,329.2,0.00,-3.6,2.0,"06:44:56",1
"18/02/13","07:00",0.0,-1.0,81.5,1010.0,272.8,1.2,2.7,307.0,0.00,-3.7,1.9,"06:53:44",1
"18/02/13","07:10",0.0,-0.8,81.9,1009.7,281.8,1.6,4.1,311.4,0.00,-3.5,2.1,"07:06:18",1
"18/02/13","07:20",0.0,-0.6,81.7,1009.7,313.1,2.7,5.0,322.3,0.00,-3.3,1.8,"07:18:16",1
"18/02/13","07:30",0.0,-0.5,81.0,1010.2,306.4,2.7,4.3,315.0,0.00,-3.3,1.8,"07:24:00",1
"18/02/13","07:40",0.0,-0.2,80.7,1010.7,290.6,2.7,4.3,307.2,0.00,-3.1,1.9,"07:37:14",1
"18/02/13","07:50",0.0,0.0,79.9,1010.7,289.3,3.1,6.5,306.2,0.01,-3.0,2.0,"07:44:18",1
"18/02/13","08:00",0.0,0.2,79.8,1011.2,289.5,3.2,7.4,320.8,0.03,-2.8,2.1,"07:56:24",1
"18/02/13","08:10",0.0,0.4,79.9,1011.4,287.3,3.5,7.4,314.9,0.04,-2.6,1.9,"08:08:56",1
"18/02/13","08:20",0.0,0.6,79.2,1011.6,279.4,3.1,5.6,261.9,0.06,-2.5,2.1,"08:12:08",1
"18/02/13","08:30",0.0,0.8,78.8,1012.1,295.3,3.4,7.2,302.5,0.09,-2.4,2.1,"08:24:20",1
"18/02/13","08:40",0.0,1.2,76.1,1011.6,287.0,3.6,8.0,338.1,0.11,-2.5,2.1,"08:33:20",1
"18/02/13","08:50",0.0,1.4,74.3,1012.3,293.7,3.9,7.4,313.8,0.13,-2.6,2.2,"08:44:08",1
"18/02/13","09:00",0.0,1.8,73.3,1012.3,297.4,3.9,8.2,316.9,0.16,-2.4,2.2,"08:55:52",1
"18/02/13","09:10",0.0,2.0,72.2,1012.6,310.2,4.5,7.2,323.4,0.19,-2.4,2.3,"09:00:56",1
"18/02/13","09:20",0.0,2.0,70.3,1012.6,308.1,5.4,11.0,333.9,0.21,-2.8,2.3,"09:14:48",1
"18/02/13","09:30",0.0,2.3,68.1,1013.0,295.6,5.2,7.3,314.6,0.24,-2.9,2.3,"09:20:16",1
"18/02/13","09:40",0.0,2.7,65.4,1013.0,303.5,4.9,7.0,311.6,0.26,-3.1,2.6,"09:35:24",1
"18/02/13","09:50",0.0,3.1,64.7,1012.8,304.7,5.0,6.7,309.8,0.29,-2.9,2.5,"09:40:08",1
"18/02/13","10:00",0.0,3.4,61.7,1013.5,314.0,4.4,7.2,343.0,0.31,-3.2,2.8,"09:57:48",1
"18/02/13","10:10",0.0,3.4,59.3,1013.5,289.2,4.4,7.1,284.2,0.34,-3.7,2.8,"10:00:34",1
"18/02/13","10:20",0.0,3.5,58.0,1013.5,282.3,3.4,7.2,307.7,0.36,-3.9,2.9,"10:12:48",1
"18/02/13","10:30",0.0,3.7,56.6,1013.5,283.1,3.5,8.6,307.9,0.37,-4.1,3.0,"10:22:06",1
"18/02/13","10:40",0.0,4.5,54.9,1013.5,299.6,3.4,8.0,338.8,0.39,-3.7,3.3,"10:36:00",1
"18/02/13","10:50",0.0,4.2,53.7,1013.5,277.6,3.1,5.1,312.0,0.41,-4.3,3.5,"10:43:04",1
"18/02/13","11:00",0.0,4.6,51.7,1013.8,265.1,3.0,5.6,272.7,0.42,-4.4,3.7,"10:59:18",1
"18/02/13","11:10",0.0,4.8,51.5,1013.8,287.9,3.2,6.7,309.3,0.44,-4.3,3.9,"11:06:00",1
"18/02/13","11:20",0.0,5.1,49.9,1013.3,267.6,3.2,5.4,260.6,0.45,-4.4,4.1,"11:11:46",1
"18/02/13","11:30",0.0,5.5,49.3,1013.3,259.0,3.0,7.4,250.1,0.44,-4.2,4.2,"11:22:48",1
"18/02/13","11:40",0.0,5.2,46.7,1013.0,284.1,3.4,5.5,311.2,0.41,-5.2,4.5,"11:39:08",1
"18/02/13","11:50",0.0,5.1,45.6,1013.3,288.4,4.5,10.5,318.7,0.37,-5.6,4.6,"11:48:00",1
"18/02/13","12:00",0.0,5.6,44.8,1013.0,302.3,3.9,6.6,307.6,0.37,-5.4,4.7,"11:50:36",1
"18/02/13","12:10",0.0,4.9,45.6,1013.0,275.3,3.7,6.7,284.7,0.28,-5.8,5.0,"12:08:10",1
"18/02/13","12:20",0.0,5.7,45.2,1012.8,292.6,3.9,7.1,345.5,0.34,-5.2,5.1,"12:17:58",1
"18/02/13","12:30",0.0,5.4,45.9,1012.6,311.7,4.4,10.2,339.5,0.25,-5.3,5.2,"12:25:26",1
"18/02/13","12:40",0.0,5.5,46.3,1012.8,298.9,3.2,7.1,335.5,0.20,-5.1,5.2,"12:32:48",1
"18/02/13","12:50",0.0,5.3,46.3,1012.6,281.3,3.2,6.2,342.0,0.16,-5.3,5.2,"12:41:56",1
"18/02/13","13:00",0.0,5.1,48.3,1012.6,275.7,2.8,4.7,297.6,0.15,-4.9,5.3,"12:52:08",1
"18/02/13","13:10",0.0,5.2,47.9,1012.3,292.7,3.4,7.2,326.8,0.12,-4.9,5.4,"13:02:40",1
"18/02/13","13:20",0.0,5.4,46.2,1012.1,301.2,3.5,6.8,316.4,0.09,-5.2,5.2,"13:19:34",1
"18/02/13","13:30",0.0,4.8,50.4,1012.1,279.1,3.0,5.8,316.3,0.10,-4.6,5.4,"13:21:38",1
"18/02/13","13:40",0.0,5.5,48.8,1012.1,301.3,2.8,6.0,331.6,0.08,-4.4,5.5,"13:39:32",1
"18/02/13","13:50",0.0,4.9,51.8,1011.6,283.1,2.8,5.1,280.0,0.11,-4.1,5.2,"13:40:32",1
"18/02/13","14:00",0.0,5.2,48.8,1011.9,300.8,3.7,8.8,337.7,0.09,-4.7,5.2,"13:59:20",1
"18/02/13","14:10",0.0,5.1,50.5,1012.3,273.8,3.1,5.8,323.5,0.11,-4.3,5.2,"14:00:18",1
"18/02/13","14:20",0.0,5.1,50.4,1012.3,274.3,2.5,4.8,300.9,0.08,-4.3,5.6,"14:17:42",1
"18/02/13","14:30",0.0,4.9,50.0,1012.3,281.1,2.6,5.0,247.5,0.05,-4.6,5.3,"14:29:54",1
"18/02/13","14:40",0.0,5.0,51.3,1012.3,309.2,2.7,5.5,342.3,0.04,-4.2,5.2,"14:39:20",1
"18/02/13","14:50",0.0,5.0,51.4,1012.6,323.6,3.0,4.7,316.3,0.05,-4.1,5.4,"14:45:08",1
"18/02/13","15:00",0.0,5.1,50.0,1012.3,327.4,3.1,5.0,336.6,0.05,-4.4,5.4,"14:51:40",1
"18/02/13","15:10",0.0,5.2,47.9,1012.3,310.0,2.2,4.0,343.1,0.04,-4.9,5.2,"15:00:08",1
"18/02/13","15:20",0.0,5.4,48.3,1012.8,291.3,2.1,3.5,313.9,0.07,-4.6,5.2,"15:16:24",1
"18/02/13","15:30",0.0,5.7,47.9,1012.6,303.1,2.7,5.9,321.5,0.10,-4.4,5.3,"15:29:10",1
"18/02/13","15:40",0.0,5.8,45.9,1012.8,282.1,3.0,5.9,312.5,0.10,-4.9,5.3,"15:39:52",1
"18/02/13","15:50",0.0,5.4,47.0,1013.0,302.4,4.0,7.7,334.6,0.05,-5.0,5.1,"15:40:16",1
"18/02/13","16:00",0.0,5.3,47.4,1013.3,277.4,3.4,5.6,307.6,0.06,-4.9,4.9,"15:58:36",1
"18/02/13","16:10",0.0,5.1,49.5,1013.3,317.1,4.5,7.7,340.0,0.05,-4.6,5.2,"16:07:12",1
"18/02/13","16:20",0.0,4.6,52.5,1013.5,314.0,4.2,8.2,337.9,0.03,-4.2,5.1,"16:10:46",1
"18/02/13","16:30",0.0,4.4,53.2,1013.5,326.6,3.5,5.2,335.7,0.03,-4.2,5.0,"16:21:44",1
"18/02/13","16:40",0.0,4.5,53.4,1013.5,306.8,2.0,4.2,338.6,0.02,-4.1,4.9,"16:31:28",1
"18/02/13","16:50",0.0,4.5,53.2,1013.8,286.6,1.6,2.1,303.7,0.01,-4.2,5.0,"16:48:06",1
"18/02/13","17:00",0.0,4.7,53.6,1014.0,319.8,2.0,3.1,323.5,0.01,-3.9,5.0,"16:58:44",1
"18/02/13","17:10",0.0,4.6,52.3,1014.2,329.9,3.4,5.9,328.6,0.00,-4.3,5.0,"17:07:00",1
"18/02/13","17:20",0.0,4.5,52.4,1014.2,308.9,3.4,5.4,336.5,0.00,-4.4,4.8,"17:18:04",1
"18/02/13","17:30",0.0,4.2,54.6,1014.2,334.6,3.5,5.8,324.7,0.00,-4.1,4.7,"17:23:34",1
"18/02/13","17:40",0.0,4.1,56.0,1014.7,326.9,3.5,5.7,329.5,0.00,-3.8,4.8,"17:33:48",1
"18/02/13","17:50",0.0,4.0,56.7,1014.5,317.7,3.5,7.1,335.5,0.00,-3.8,4.8,"17:44:58",1
"18/02/13","18:00",0.0,3.9,57.6,1014.2,328.3,3.5,6.3,338.9,0.00,-3.7,4.7,"17:56:40",1
"18/02/13","18:10",0.0,3.8,58.7,1014.7,324.5,4.4,7.3,326.4,0.00,-3.5,4.8,"18:03:52",1
"18/02/13","18:20",0.0,3.7,59.5,1014.5,322.0,3.6,5.9,317.3,0.00,-3.4,4.7,"18:12:00",1
"18/02/13","18:30",0.0,3.4,60.3,1015.2,312.7,1.8,3.6,304.1,0.00,-3.5,4.6,"18:24:32",1
"18/02/13","18:40",0.0,3.1,61.6,1015.2,299.3,1.5,2.4,325.9,0.00,-3.5,4.5,"18:34:16",1
"18/02/13","18:50",0.0,3.2,61.5,1014.9,316.8,2.1,3.4,329.2,0.00,-3.4,4.5,"18:43:12",1
"18/02/13","19:00",0.0,3.1,62.6,1015.2,315.0,2.0,4.3,330.3,0.00,-3.3,4.4,"18:58:50",1
"18/02/13","19:10",0.0,3.1,63.2,1015.2,288.9,1.8,3.2,322.9,0.00,-3.2,4.3,"19:02:24",1
"18/02/13","19:20",0.0,2.9,64.9,1015.6,270.4,1.5,2.0,278.8,0.00,-3.0,4.5,"19:18:40",1
"18/02/13","19:30",0.0,2.7,67.2,1015.2,254.8,1.2,1.8,245.5,0.00,-2.7,4.3,"19:24:08",1
"18/02/13","19:40",0.0,2.6,68.3,1015.4,305.4,1.8,2.8,327.2,0.00,-2.6,4.3,"19:36:56",1
"18/02/13","19:50",0.0,2.4,69.1,1015.6,314.9,1.8,2.4,318.3,0.00,-2.6,4.2,"19:42:16",1
"18/02/13","20:00",0.0,1.8,69.8,1015.4,286.1,1.6,2.1,288.1,0.00,-3.1,4.4,"19:50:02",1
"18/02/13","20:10",0.0,1.4,71.6,1015.6,287.2,1.7,2.4,322.4,0.00,-3.1,4.0,"20:09:28",1
"18/02/13","20:20",0.0,0.9,73.1,1015.6,299.2,1.7,2.2,317.7,0.00,-3.3,4.0,"20:13:20",1
"18/02/13","20:30",0.0,0.7,75.0,1015.2,300.3,1.7,2.5,317.8,0.00,-3.2,3.9,"20:20:56",1
"18/02/13","20:40",0.0,0.3,75.7,1015.2,321.2,1.7,2.1,335.3,0.00,-3.4,4.0,"20:30:02",1
"18/02/13","20:50",0.0,-0.1,77.3,1015.2,323.6,1.6,2.5,335.3,0.00,-3.5,3.8,"20:40:40",1
"18/02/13","21:00",0.0,0.2,78.2,1015.4,312.0,2.2,3.3,330.4,0.00,-3.1,3.6,"20:52:56",1
"18/02/13","21:10",0.0,0.1,77.9,1015.2,298.6,1.5,2.2,311.7,0.00,-3.3,3.8,"21:01:28",1
"18/02/13","21:20",0.0,0.2,78.0,1015.4,313.5,1.7,2.6,327.9,0.00,-3.1,3.6,"21:13:04",1
"18/02/13","21:30",0.0,0.1,77.9,1015.4,295.1,1.5,2.4,310.5,0.00,-3.3,3.7,"21:21:28",1
"18/02/13","21:40",0.0,0.3,77.7,1015.4,302.3,1.8,3.1,317.0,0.00,-3.1,3.7,"21:37:12",1
"18/02/13","21:50",0.0,0.4,75.9,1015.6,306.9,2.2,4.1,328.2,0.00,-3.3,3.5,"21:48:16",1
"18/02/13","22:00",0.0,0.2,75.9,1015.4,268.9,1.2,1.4,299.1,0.00,-3.5,3.5,"21:50:08",1
"18/02/13","22:10",0.0,-0.1,76.5,1015.6,296.8,1.3,1.9,278.1,0.00,-3.7,3.3,"22:04:40",1
"18/02/13","22:20",0.0,-0.6,77.8,1015.2,309.3,1.2,2.1,339.1,0.00,-3.9,3.1,"22:13:12",1
"18/02/13","22:30",0.0,-0.6,79.5,1015.4,326.9,1.7,2.4,333.0,0.00,-3.7,3.2,"22:21:52",1
"18/02/13","22:40",0.0,-0.5,79.1,1015.4,314.8,1.8,3.9,332.2,0.00,-3.6,3.2,"22:35:44",1
"18/02/13","22:50",0.0,-0.4,79.9,1015.4,331.5,2.1,3.6,344.6,0.00,-3.4,3.2,"22:42:56",1
"18/02/13","23:00",0.0,-0.3,79.7,1015.6,333.6,2.1,3.2,342.9,0.00,-3.3,3.2,"22:54:32",1
"18/02/13","23:10",0.0,-0.2,78.7,1015.4,328.6,2.5,3.9,331.6,0.00,-3.4,3.1,"23:08:40",1
"18/02/13","23:20",0.0,-0.3,77.7,1015.6,326.2,2.3,3.3,336.1,0.00,-3.7,3.1,"23:10:16",1
"18/02/13","23:30",0.0,-0.4,78.1,1015.6,331.0,3.0,4.3,338.6,0.00,-3.7,2.9,"23:23:20",1
"18/02/13","23:40",0.0,-0.4,78.7,1015.6,324.8,2.6,3.6,337.9,0.00,-3.6,3.2,"23:30:40",1
"18/02/13","23:50",0.0,-0.4,77.3,1015.2,312.9,2.2,4.8,337.5,0.00,-3.8,3.0,"23:40:56",1
"18/02/13","24:00",0.0,-0.5,77.6,1015.2,319.3,1.8,2.9,343.6,0.00,-3.9,2.8,"23:56:40",1
